Location: Newark
(49.2191°N, 12.6671°E)
Time: 18:02:29
(UTC+00:00)

Transit 4A - Pass Details

Date: 25 January 2020
Orbit: 872 x 973 km, 66.8° (Epoch: 22 February)

Event Time Altitude Azimuth Distance (km) Brightness Sun altitude
Rises 13:16:45 0° 325° (NW) 3,478 10.6 17.1°
Reaches altitude 10° 13:19:21 10° 331° (NNW) 2,532 9.9 16.9°
Maximum altitude 13:24:59 48° 45° (NE) 1,126 8.2 16.5°
Drops below altitude 10° 13:30:38 10° 120° (ESE) 2,532 10.2 16.0°
Sets 13:33:13 0° 126° (SE) 3,476 11.0 15.8°
